www.pogodaiklimat.ru

Погода и климат >> Архив погоды >> Россия >> Мурманская область >> Сосновец Остров


АРХИВ ПОГОДЫ на Сосновец Острове

Время (UTC), дата Ветер
(напр.,м/с)
 
Видим.   Явления Облачность Т
(С)
Тd
(С)
f
(%)
Тe
(С)
Тes
(С)
Комфортность P
(гПа)
Po
(гПа)
Тmin
(С)
Tmax
(С)
R
(мм)
R24
(мм)
S
(см)
12 11.08 ЮВ 5 20 км 6/5 600 м
[Sc Ac As]
+8.5 +5.2 80 +5 +6 1019.0 1016.9
15 11.08 Ю 4 20 км 8/8 600 м
[Sc]
+7.9 +5.3 84 +5 +5 1018.5 1016.3 +9.2
18 11.08 Ю 4 20 км 8/5 600 м
[Sc Ac As]
+7.2 +5.0 86 +4 +4 1018.4 1016.2
21 11.08 Ю 4 20 км 8/5 600 м
[Sc Ac As]
+7.6 +4.0 78 +4 +4 1018.4 1016.2
00 12.08 ЮЗ 3 20 км 9/9 600 м
[Sc]
+7.3 +5.2 87 +4 +4 1018.4 1016.2
03 12.08 ЮЗ 3 20 км 4/4 600 м
[Sc]
+7.4 +4.2 80 +5 +5 1018.5 1016.3 +6.6
06 12.08 ЮЗ 6 20 км 3/0
[Ac trans]
+8.7 +6.2 84 +5 +6 1018.4 1016.2
09 12.08 ЮЗ 8
{10}
20 км ясно +9.9 +7.4 84 +6 +7 1018.3 1016.1
12 12.08 ЮЗ 7
{11}
20 км 3/0
[Ci fib]
+11.6 +5.9 68 +9 +10 1017.9 1015.7
15 12.08 ЮЗ 5 20 км 3/0
[Ci fib]
+10.7 +5.9 72 +8 +9 1016.6 1014.4 +11.8
18 12.08 Ю 4 20 км 3/0
[Ci fib]
+7.9 +5.9 87 +5 +5 1016.4 1014.2
21 12.08 штиль 0 20 км 3/0
[Ci fib]
+7.1 +4.7 85 +6 +6 1015.9 1013.7
00 13.08 ЮЗ 3 20 км 3/0
[Ci fib]
+8.4 +4.4 76 +6 +6 1015.5 1013.3
03 13.08 Ю 5 20 км 4/0
[Ci fib]
+8.8 +5.0 77 +5 +6 1014.9 1012.7 +5.8
06 13.08 Ю 6 20 км 3/0
[Cs]
+9.6 +6.1 79 +6 +8 1013.8 1011.6
09 13.08 ЮВ 5 20 км 8/5 600 м
[Sc Ac As Cs]
+11.7 +6.8 72 +9 +11 1013.0 1010.9
12 13.08 В 2 20 км 9/3 600 м
[Sc Ac As]
+11.1 +6.4 73 +10 +12 1012.0 1009.8
15 13.08 В 3 20 км 10/0
[Ac As]
+11.5 +6.0 69 +10 +10 1011.0 1008.8 +13.2
18 13.08 СВ 1 20 км 10/8 600 м
[Sc Ac As]
+10.1 +6.0 76 +10 +10 1010.5 1008.4
21 13.08 З 1 20 км 10/8 600 м
[Sc Ac As]
+10.7 +5.4 70 +11 +11 1009.8 1007.6
00 14.08 ЮВ 2 20 км 10/8 600 м
[Sc Ac As]
+9.0 +6.7 85 +7 +7 1008.8 1006.6
03 14.08 ЮВ 2 4000 м слаб. ливневой дождь 10/10 300 м
[Cb cap]
+8.8 +7.5 92 +7 +7 1008.2 1006.0 +8.4 0.4
06 14.08 СВ 2 20 км {ливн. осадки} 9/3 600 м
[Sc Ac trans]
+9.6 +7.6 87 +8 +10 1007.2 1005.0
09 14.08 СВ 2 20 км 9/0
[Ac trans]
+10.7 +7.4 80 +9 +13 1006.5 1004.3
12 14.08 СВ 4 20 км 9/1 600 м
[Cu hum Ac As]
+10.2 +7.2 82 +8 +9 1006.0 1003.8
15 14.08 Ю 3 20 км 6/0
[Ac As Cs]
+9.9 +7.5 85 +8 +8 1006.4 1004.2 +11.3 0.3
18 14.08 ЮЗ 4 20 км 9/0 600 м
[Ac trans]
+9.0 +8.0 93 +6 +6 1006.3 1004.1
21 14.08 ЮЗ 3 20 км 8/0
[Ac trans]
+8.7 +8.1 96 +6 +6 1006.2 1004.0
00 15.08 штиль 0 20 км 10/0
[Ac und]
+8.5 +8.0 97 +8 +8 1006.1 1003.9 -0.7
03 15.08 В 1 4000 м дымка 10/8 600 м
[Sc Ac und]
+9.2 +8.6 96 +8 +8 1006.1 1004.0
06 15.08 В 1 4000 м дымка 10/10 300 м
[St]
+10.3 +9.2 93 +10 +10 1005.5 1003.4
09 15.08 Ю 2 4000 м дымка 10/10 300 м
[St]
+10.4 +9.0 91 +9 +9 1005.1 1002.9
12 15.08 Ю 2 20 км 9/3 600 м
[Cu Sc Cs]
+10.4 +9.2 92 +9 +12 1004.2 1002.0
15 15.08 Ю 2 4000 м дымка 9/9 300 м
[St]
+9.2 +8.7 97 +7 +7 1003.5 1001.4 +11.7
18 15.08 СЗ 2 200 м туман 10/10 300 м
[St]
+9.1 +8.6 97 +7 +7 1002.8 1000.6
21 15.08 С 1 200 м слаб. дождь {туман} туман 10/0 300 м
[As op]
+10.1 +9.8 98 +9 +9 1001.4 999.2
00 16.08 СВ 3 200 м слаб. дождь {туман} туман 10/0 300 м
[As op]
+10.5 +10.1 97 +8 +8 1000.7 998.5
03 16.08 СВ 3 200 м слаб. дождь {туман} туман 10/0 300 м
[As op]
+9.6 +9.1 97 +7 +7 1001.3 999.2 +8.6 1
06 16.08 ЮЗ 1 200 м слаб. дождь {туман} 10/0 300 м
[As op]
+9.9 +9.6 98 +9 +10 1003.5 1001.4
09 16.08 СЗ 4 4000 м {дождь} 10/10 300 м
[Sc]
+12.1 +10.8 92 +10 +10 1005.4 1003.3
12 16.08 СЗ 6 20 км {дождь, туман} 10/10 300 м
[Sc]
+12.7 +10.8 88 +10 +10 1007.9 1005.8
15 16.08 С 3 20 км 10/10 300 м
[Sc]
+13.0 +10.5 85 +12 +12 1010.0 1007.8 +13.0 0.4
18 16.08 С 4 20 км 10/10 300 м
[Sc]
+10.8 +9.4 91 +8 +8 1011.8 1009.7
21 16.08 СВ 2 20 км 10/10 300 м
[Sc]
+9.4 +8.4 93 +8 +8 1013.2 1011.1
00 17.08 В 1 20 км 10/10 300 м
[Sc]
+8.4 +7.8 96 +7 +7 1014.7 1012.5
03 17.08 ЮВ 1 20 км 10/10 300 м
[Sc]
+8.4 +7.5 94 +8 +8 1015.9 1013.7 +8.3
06 17.08 Ю 2 20 км 10/10 600 м
[Sc]
+8.5 +7.5 93 +7 +7 1016.9 1014.7
09 17.08 Ю 3 20 км 10/10 600 м
[Sc]
+9.8 +8.2 90 +7 +7 1017.6 1015.5
12 17.08 Ю 4 20 км 10/10 600 м
[Sc]
+9.7 +8.7 93 +7 +7 1017.9 1015.8
15 17.08 ЮЗ 7 4000 м дымка 10/10 300 м
[Sc]
+8.6 +8.3 98 +4 +4 1018.1 1015.9
18 17.08 ЮЗ 6 200 м туман ?/? +8.8 +8.5 98 +5 +5 1018.3 1016.1
21 17.08 ЮЗ 6 200 м туман ?/? +8.8 +8.5 98 +5 +5 1018.3 1016.1
00 18.08 ЮЗ 3 200 м туман ?/? +8.1 +7.8 98 +5 +5 1019.3 1017.1
03 18.08 Ю 2 200 м туман ?/? +8.2 +7.9 98 +6 +6 1019.7 1017.5 +7.5
06 18.08 Ю 5 20 км в посл. час туман ясно +10.0 +8.9 93 +7 +9 1019.9 1017.8

 

Местоположение метеостанции Сосновец Остров (Мурманская область, Россия): широта 66.48 долгота 40.68 высота над уровнем моря 18 м.

В архиве по умолчанию представлена погода на Сосновец Острове за последнюю неделю. Архивные данные за месяц целиком и за предыдущие месяцы, начиная с января 2011 года, Вы можете получить, выбрав интересующий диапазон дат из раскрывающегося списка и нажав кнопку "Ввод!".


*Определитесь, кто Вы:
робот инопланетянин человек

Внимание! Время в таблицах - всемирное. Для получения местного времени необходимо прибавить поправку, которая равна 3 ч.

Смотрите также архив погоды в соседних городах и на ближайших метеорологических станциях:

Погода в Пялице (Мурманская область, Россия) (61 км)
Погода на Моржовец Острове (Архангельская область, Россия) (84 км)
Погода в Каневке (Мурманская область, Россия) (85 км)
Погода в Абрамовском маяке (Архангельская область, Россия) (115 км)
Погода в Зимнегорском Маяке (Архангельская область, Россия) (121 км)
Погода в Кепино (Архангельская область, Россия) (133 км)
Погода на Чаваньга реке (Мурманская область, Россия) (138 км)
Погода в Мезене (Архангельская область, Россия) (173 км)
Погода в Неси (Ненецкий АО, Россия) (178 км)
Погода в Иоканьге (Мурманская область, Россия) (182 км)

Пояснения к столбцам:

Ветер - указаны скорость ветра в м/с - средняя за 10 мин, порывы в срок и между сроками (в фигурных скобках) и направление, откуда дует ветер: С - северный, СВ - северо-восточный, В - восточный, ЮВ - юго-восточный, Ю - южный, ЮЗ - юго-западный, З - западный, СЗ - северо-западный.
Видимость - горизонтальная дальность видимости в метрах или километрах. При видимости от 1 до 10 км при отсутствии осадков обычно наблюдается дымка, при ухудшении видимости до 1 км и менее - туман. В сухую погоду видимость может ухудшаться дымом, пылью или мглою.
Явления - указаны атмосферные явления, наблюдавшиеся в срок или в последний час перед сроком; фигурными скобками обозначены явления, наблюдавшиеся между сроками (за 1-3 часа до срока); квадратными скобками обозначены град или гололедные отложения с указанием их диаметра в мм.
Облачность - указаны через наклонную черту общая и нижняя облачность в баллах и высота нижней границы облаков в метрах; квадратными скобками обозначены формы облаков: Ci - перистые, Cs - перисто-слоистые, Cc - перисто-кучевые, Ac - высококучевые, As - высокослоистые, Sc - слоисто-кучевые, Ns - слоисто-дождевые, Cu - кучевые, Cb - кучево-дождевые. Подробнее классификацию облаков см. в Атласе облаков (PDF).
T - Температура воздуха - температура, измеренная на высоте 2 м над землей.
Td - Температура точки росы - температура, при понижении до которой содержащийся в воздухе водяной пар достигнет насыщения.
f - Относительная влажность воздуха - влажноcть воздуха, измеренная на высоте 2 м над землей.
Te - Эффективная температура - температура, которую ощущает одетый по сезону человек в тени. Характеристика душности погоды. При расчете учитывается влияние влажности воздуха и скорости ветра на теплоощущения человека.
Tes - Эффективная температура на солнце - температура, которую ощущает человек, с поправкой на солнечный нагрев. Характеристика знойности погоды. Зависит от высоты солнца над горизонтом, облачности и скорости ветра. Ночью, в пасмурную погоду, а также при ветре 12 м/с и более поправка равна нулю.
P - Атмосферное давление - приведенное к уровню моря атмосферное давление.
Po - Атмосферное давление - измеренное на уровне метеостанции атмосферное давление.
Tmin - Минимальная температура - минимум температуры воздуха на высоте 2 м над землей.
Tmax - Максимальная температура - максимум температуры воздуха на высоте 2 м над землей.
R - Количество осадков - Количество выпавших осадков за период времени, мм. При наведении курсора мыши на число - период времени, за который выпало указанное количество осадков.
R24 - Количество осадков - Количество выпавших осадков за 24 часа, мм.
S - Снежный покров - Высота снежного покрова, см. При наведении курсора мыши на число - состояние снежного покрова и степень покрытия местности в баллах.